Skip Page Navigation
NASA JPL Caltech
NASA Logo - Jet Propulsion Laboratory + View the NASA Portal
+ Center for Near-Earth Object Studies
JPL Home Earth Solar System Stars & Galaxies Technology
JPL Solar System Dynamics
BODIES ORBITS EPHEMERIDES TOOLS PHYSICAL DATA DISCOVERY FAQ SITE MAP
JPL Small-Body Database Browser
Search: [ help ]  
376677 (2013 QF34)
Classification: Main-belt Asteroid          SPK-ID: 2376677
Ephemeris | Orbit Diagram | Orbital Elements | Mission Design | Physical Parameters | Discovery Circumstances ]

[ show orbit diagram ]
Orbital Elements at Epoch 2459000.5 (2020-May-31.0) TDB
Reference: JPL 11 (heliocentric ecliptic J2000)
 Element Value Uncertainty (1-sigma)   Units 
e .06434775115677283 6.2155e-08  
a 2.844721168182648 4.4145e-08 au
q 2.661669758342027 1.6327e-07 au
i 5.24035751378238 1.116e-05 deg
node 334.7486751658544 6.5837e-05 deg
peri 87.1290096338461 0.00012908 deg
M 78.73919192943566 0.00010322 deg
tp 2458617.193277315155
(2019-May-13.69327732)
0.00050643 TDB
period 1752.499826137511
4.80
4.0794e-05
1.117e-07
d
yr
n .2054208477688901 4.7817e-09 deg/d
Q 3.027772578023269 4.6986e-08 au
  Orbit Determination Parameters
   # obs. used (total)      126  
   data-arc span      5094 days (13.95 yr)  
   first obs. used      2006-02-21  
   last obs. used      2020-02-02  
   planetary ephem.      DE431  
   SB-pert. ephem.      SB431-N16  
   condition code      0  
   norm. resid. RMS      .56673  
   source      ORB  
   producer      Otto Matic  
   solution date      2020-Feb-26 02:47:38  

Additional Information
 Earth MOID = 1.68089 au 
 Jupiter MOID = 2.17382 au 
 T_jup = 3.299 
[ hide covariance matrix ]
Orbital Elements at Epoch 2457182.5 (2015-Jun-09.0) TDB
Reference: JPL 11 (heliocentric ecliptic J2000)
 Element Value Uncertainty (1-sigma)   Units 
e .06230474315267808 6.021e-08  
q 2.669285333726392 1.5735e-07 au
tp 2456869.366127400715
(2014-Jul-30.86612740)
0.00054782 TDB
node 334.8039181910451 6.5724e-05 deg
peri 88.23411403411635 0.00013264 deg
i 5.244544263661541 1.116e-05 deg
  Orbit Determination Parameters
   # obs. used (total)      126  
   data-arc span      5094 days (13.95 yr)  
   first obs. used      2006-02-21  
   last obs. used      2020-02-02  
   planetary ephem.      DE431  
   SB-pert. ephem.      SB431-N16  
   condition code      0  
   norm. resid. RMS      .56673  
   source      ORB  
   producer      Otto Matic  
   solution date      2020-Feb-26 02:47:38  

Additional Information
 Jupiter MOID = 2.17382 au 
 T_jup = 3.299 
Orbit Covariance (6×6)
  e q tp node peri i
e 3.625225606289293E-15 -9.192590613806967E-15 -1.812452754071475E-11 1.088788611867826E-14 -3.747832211821479E-12 9.144685825341085E-16
q -9.192590613806967E-15 2.475979621613047E-14 3.910308298413185E-11 -1.799713402132011E-14 8.103991210892728E-12 2.098481964241577E-16
tp -1.812452754071475E-11 3.910308298413185E-11 3.001099811068013E-7 -3.759566758167898E-10 6.313654779169124E-8 -5.659927172300092E-11
node 1.088788611867826E-14 -1.799713402132011E-14 -3.759566758167898E-10 4.319635954721655E-9 -4.380152703946141E-9 2.823221188305771E-10
peri -3.747832211821479E-12 8.103991210892728E-12 6.313654779169124E-8 -4.380152703946141E-9 1.759293908347256E-8 -2.929638592856232E-10
i 9.144685825341085E-16 2.098481964241577E-16 -5.659927172300092E-11 2.823221188305771E-10 -2.929638592856232E-10 1.245384944397776E-10

Ephemeris | Orbit Diagram | Orbital Elements | Mission Design | Physical Parameters | Discovery Circumstances ]

Physical Parameter Table
Parameter Symbol Value Units Sigma Reference Notes
absolute magnitude H 17.2   n/a MPO455716  

376677 (2013 QF34)          Discovered 2006-Feb-21 by Mt. Lemmon Survey at Mount Lemmon
Reference: Last Updated: 2013-10-21
Ephemeris | Orbit Diagram | Orbital Elements | Mission Design | Physical Parameters | Discovery Circumstances ]
ABOUT SSD CREDITS/AWARDS PRIVACY/COPYRIGHT GLOSSARY LINKS
FirstGov 2020-Jul-10 14:26 UT
(server date/time)  
NASA Home Page
Site Manager:   Ryan S. Park
Webmaster  Alan B. Chamberlin